Location: *
(43.2048°N, 0.1612°E)
Time: 18:29:55
(UTC+00:00)

Cosmos 468 - Pass Details

Date: 30 September 2023
Orbit: 761 x 782 km, 74.0° (Epoch: 05 December)

Event Time Altitude Azimuth Distance (km) Brightness Sun altitude
Rises 04:00:20 0° 338° (NNW) 3,251 7.7 -21.5°
Reaches altitude 10° 04:02:44 10° 337° (NNW) 2,317 6.9 -21.1°
Maximum altitude 04:07:59 77° 252° (WSW) 790 4.3 -20.1°
Drops below altitude 10° 04:13:10 10° 167° (SSE) 2,290 6.9 -19.2°
Sets 04:15:31 0° 166° (SSE) 3,210 7.7 -18.8°
